Temp
50 50 51 50 50 49 47 54 42 57 57 45 48 41 41 43 45 49 45 44 41 38 39 37 37 37 42 43 42 34 43 40 37 46 56 60 55 50 49 40 38 45 42 43
50 50 50 50 50 49 57 52 52 57 54 36 41 43 42 44 43 44 43 40 43 43 39 32 39 41 48 46 37 36 36 36 33 33 44 52 49 52 54 48 47 40 38 45
50 50 50 50 50 49 52 47 36 49 53 44 38 36 38 39 47 44 45 43 45 41 37 43 38 40 44 41 35 39 37 34 38 34 43 47 41 45 49 47 40 43 45 50
50 50 50 50 49 49 50 47 40 45 38 40 39 37 35 36 35 43 45 40 40 36 32 37 38 39 35 39 38 37 36 40 45 46 50 51 48 47 49 45 47 42 48 49
50 50 50 50 49 49 50 38 46 46 41 40 33 36 34 35 36 36 37 35 39 39 35 39 33 37 38 34 39 35 40 39 47 44 50 50 45 48 49 49 49 50 50 50
50 50 50 49 49 48 47 54 52 49 40 42 39 39 36 35 33 40 41 37 34 37 41 45 46 47 45 42 36 35 39 45 44 35 46 45 38 45 47 49 51 47 41 47
50 50 50 49 49 49 50 54 53 41 40 44 43 41 42 38 36 30 38 40 36 41 47 46 49 47 46 46 44 45 38 43 43 34 39 29 44 54 53 47 45 47 46 47
49 50 49 49 49 49 50 55 48 41 35 45 43 42 42 44 41 34 33 39 39 43 37 34 37 39 41 42 46 46 49 43 37 35 38 42 45 47 46 44 35 40 40 42
49 49 49 49 49 49 49 54 55 47 37 44 45 42 45 41 37 38 35 46 47 39 36 35 31 32 38 37 40 48 47 48 41 39 33 29 37 47 52 49 29 36 38 36
49 49 49 49 49 49 48 49 48 41 38 49 46 42 40 46 43 41 44 42 44 50 38 36 35 36 44 36 35 37 40 40 36 36 37 36 39 47 50 32 27 36 36 32
49 49 49 49 49 49 49 46 50 44 40 46 49 50 44 46 46 39 44 43 44 41 35 36 38 37 41 39 41 37 36 32 35 37 34 28 38 45 32 31 34 35 34 31
48 48 48 49 49 49 49 42 50 46 37 45 50 51 52 50 50 45 45 41 41 40 36 37 38 37 39 39 31 44 33 34 31 32 29 34 36 34 35 36 33 33 34 33
48 48 48 48 49 49 49 45 44 40 36 42 48 50 55 56 54 55 43 49 47 43 46 38 39 35 42 32 33 34 34 41 34 33 32 33 35 36 35 34 31 32 32 31
48 48 48 48 48 49 48 46 49 48 42 35 47 56 52 57 56 54 53 50 51 49 49 40 39 35 42 34 38 34 33 35 34 31 33 34 32 31 32 32 31 30 30 30
47 48 48 48 48 49 50 49 52 50 42 36 44 53 54 55 54 52 52 50 48 47 39 37 37 39 37 40 42 32 33 28 29 28 32 31 28 30 32 29 29 31 31 29
47 48 48 48 48 48 45 35 51 53 48 39 33 52 50 52 52 50 50 51 49 45 40 40 43 44 41 33 31 29 32 32 33 31 33 31 30 31 31 29 28 29 29 29
47 47 47 48 48 46 42 43 46 50 49 41 35 42 50 51 51 52 51 50 50 47 44 41 42 39 41 34 30 29 31 32 33 36 36 31 31 28 30 30 30 31 32 33
47 47 47 48 47 45 41 49 50 51 45 47 32 38 43 50 40 39 51 45 43 43 44 46 39 40 35 28 28 30 31 31 32 34 34 33 34 34 35 36 35 31 29 29
47 47 47 44 42 38 42 47 48 51 43 35 35 33 34 49 43 44 46 47 36 48 40 42 43 37 28 28 29 29 30 31 30 34 39 38 36 36 36 36 34 31 29 29
47 45 37 32 39 46 45 40 37 37 38 41 36 45 38 46 42 41 41 44 38 34 39 45 37 28 32 31 31 34 35 36 37 34 32 34 32 32 32 31 32 31 30 28
40 35 34 41 46 41 38 33 33 34 32 40 38 41 38 50 37 35 46 36 40 32 37 36 34 29 30 34 33 35 37 38 37 38 37 36 34 31 30 29 29 28 26 23
40 41 43 41 36 36 33 33 36 34 36 40 37 37 43 43 47 38 40 35 36 30 41 34 30 28 33 34 33 34 35 35 34 36 34 34 33 33 31 29 25 22 19 18
43 40 35 34 34 30 29 26 31 33 40 40 38 34 41 41 43 38 38 30 32 42 32 33 30 32 34 34 33 32 33 33 32 31 32 31 29 27 24 20 19 19 17 18
35 34 30 31 29 33 36 37 37 41 40 40 38 37 39 40 36 35 30 35 37 30 29 30 31 30 30 31 32 31 27 27 26 25 23 21 19 18 18 18 18 18 16 16
34 36 31 31 37 36 35 36 36 40 43 40 37 41 40 37 33 36 34 30 29 32 32 31 31 30 28 27 27 24 23 22 22 22 20 18 18 18 18 19 20 18 17 16
36 36 31 32 33 32 33 34 34 39 40 42 42 34 32 32 34 31 30 30 31 31 30 30 29 27 27 25 24 23 23 24 23 22 21 20 19 20 21 20 19 18 18 17
32 31 31 34 33 34 34 35 37 41 39 35 40 30 31 37 32 31 37 32 30 29 28 30 29 27 25 24 23 22 23 23 24 23 23 22 22 21 21 22 22 22 22 19
MSLP
1018.62 1018.66 1019.37 1019.50 1019.20 1018.96 1019.08 1017.34 1016.55 1017.82 1017.38 1016.13 1015.58 1014.66 1015.50 1015.70 1014.54 1014.19 1013.75 1013.41 1012.82 1011.92 1011.42 1010.71 1010.07 1009.43 1008.93 1010.05 1010.45 1008.76 1007.15 1004.89 1001.75 999.79 999.93 999.71 1000.12 1000.22 1000.61 1000.44 1000.20 999.30 998.67 997.88
1018.56 1018.87 1019.28 1019.43 1019.27 1019.04 1017.65 1016.67 1016.74 1017.70 1017.14 1015.93 1015.30 1015.37 1015.47 1015.27 1014.78 1014.21 1013.83 1013.44 1012.95 1012.55 1011.81 1011.32 1010.31 1009.68 1009.34 1009.51 1010.34 1009.93 1008.78 1005.33 1002.28 1001.53 1000.88 1000.16 999.70 999.84 999.99 1001.05 1000.93 1000.04 999.19 997.96
1018.58 1018.92 1019.22 1019.28 1019.21 1019.09 1018.77 1017.58 1017.07 1016.43 1016.15 1017.22 1016.97 1016.50 1015.68 1015.17 1014.75 1014.30 1014.04 1013.60 1012.91 1012.31 1011.65 1010.89 1010.14 1009.81 1009.88 1010.57 1010.63 1009.79 1009.27 1005.66 1001.37 1000.02 998.73 999.79 1000.42 1000.77 1000.90 1001.22 1001.10 1000.36 999.56 998.52
1018.56 1018.90 1019.14 1019.18 1019.20 1019.35 1019.23 1017.81 1017.01 1016.89 1016.05 1016.40 1017.07 1017.37 1017.15 1015.95 1015.29 1015.12 1014.56 1013.51 1012.90 1012.85 1012.03 1010.81 1009.88 1010.21 1010.54 1010.11 1009.38 1008.62 1007.62 1004.03 1001.55 1000.83 999.65 999.66 1000.31 1000.66 1001.06 1001.43 1001.58 1001.24 1000.59 1000.34
1018.47 1018.85 1018.96 1019.12 1019.44 1019.44 1018.64 1017.84 1016.28 1017.30 1016.78 1017.19 1017.71 1017.05 1016.73 1016.24 1016.09 1016.09 1014.86 1014.39 1013.68 1012.99 1012.14 1011.07 1010.39 1010.13 1009.89 1009.54 1008.60 1008.02 1005.66 1003.92 1001.78 1001.11 1000.84 1000.76 1001.16 1001.60 1001.64 1001.82 1002.09 1002.29 1002.11 1001.93
1018.49 1018.62 1019.03 1019.36 1019.49 1019.66 1018.54 1018.03 1017.95 1016.96 1016.71 1016.26 1016.47 1016.03 1016.53 1016.47 1016.97 1015.84 1015.39 1015.19 1014.26 1012.48 1011.88 1011.24 1010.43 1009.66 1009.03 1009.25 1008.70 1007.59 1005.61 1002.92 1001.80 1002.22 1002.01 1002.03 1002.26 1002.34 1002.57 1002.93 1003.33 1004.30 1004.23 1004.91
1018.34 1018.72 1019.11 1019.34 1019.43 1019.59 1018.90 1018.21 1017.90 1017.66 1016.13 1015.78 1015.70 1015.92 1015.85 1015.92 1016.48 1016.61 1015.73 1015.20 1014.35 1013.03 1012.86 1011.60 1009.90 1009.11 1008.59 1008.12 1007.70 1006.96 1005.70 1003.78 1003.04 1003.41 1003.27 1002.85 1003.51 1003.60 1003.89 1004.77 1006.28 1007.08 1007.40 1007.55
1018.29 1018.62 1019.02 1019.29 1019.57 1019.79 1019.14 1018.57 1018.49 1018.28 1017.33 1015.91 1015.53 1015.74 1015.52 1015.24 1015.60 1016.01 1015.69 1015.11 1014.86 1014.17 1013.31 1011.65 1009.18 1007.61 1007.24 1006.93 1006.66 1006.25 1005.47 1004.73 1004.51 1004.30 1003.68 1004.20 1004.75 1005.45 1005.87 1006.31 1008.82 1010.04 1010.13 1009.98
1018.31 1018.61 1018.90 1019.34 1019.58 1019.83 1019.67 1018.80 1018.99 1018.76 1017.98 1015.68 1016.05 1015.82 1015.19 1015.09 1015.12 1014.81 1014.88 1014.22 1013.64 1013.76 1012.68 1010.77 1008.65 1007.02 1006.16 1005.93 1006.18 1006.36 1005.89 1005.78 1005.55 1005.26 1005.26 1005.66 1007.32 1007.43 1007.69 1007.98 1010.59 1012.25 1012.41 1012.55
1018.17 1018.54 1018.95 1019.27 1019.45 1019.58 1019.75 1019.62 1020.06 1020.10 1018.58 1016.63 1016.54 1015.93 1016.10 1015.55 1015.13 1014.24 1013.55 1013.61 1012.83 1011.85 1011.58 1009.98 1008.59 1007.45 1006.90 1006.53 1006.39 1006.42 1006.58 1006.82 1006.59 1007.11 1007.02 1008.47 1010.35 1009.25 1008.34 1010.01 1013.97 1014.17 1014.53 1015.00
1018.06 1018.51 1018.90 1019.17 1019.33 1019.51 1019.54 1019.67 1020.03 1020.06 1019.22 1017.53 1016.71 1016.33 1016.22 1015.59 1015.20 1014.81 1014.47 1013.39 1013.07 1012.52 1011.71 1010.91 1009.83 1008.75 1008.10 1007.83 1008.17 1008.28 1008.17 1008.42 1008.35 1008.99 1009.50 1011.46 1012.70 1010.97 1012.41 1015.28 1015.59 1015.86 1016.17 1016.70
1018.06 1018.39 1018.78 1019.02 1019.29 1019.44 1019.58 1019.79 1020.01 1020.60 1020.51 1018.21 1017.48 1016.95 1016.76 1016.51 1016.23 1015.98 1015.18 1014.71 1014.40 1014.44 1013.71 1012.85 1011.88 1010.29 1009.73 1009.05 1008.69 1009.84 1010.32 1011.63 1011.80 1012.80 1013.75 1015.11 1015.62 1015.97 1016.62 1016.80 1017.07 1017.35 1017.51 1017.97
1017.98 1018.30 1018.54 1018.91 1019.16 1019.27 1019.44 1019.48 1020.34 1020.83 1020.25 1018.20 1016.54 1015.13 1015.59 1015.90 1016.01 1016.10 1015.55 1014.57 1015.05 1015.02 1015.27 1014.75 1013.21 1011.72 1011.08 1010.86 1011.29 1011.58 1012.85 1013.13 1013.15 1014.15 1015.66 1016.62 1017.07 1017.64 1018.20 1018.61 1018.82 1018.91 1019.05 1019.31
1017.85 1018.13 1018.45 1018.69 1018.88 1019.04 1019.35 1019.28 1019.61 1019.66 1019.27 1017.90 1015.31 1015.36 1015.21 1015.41 1015.75 1015.81 1015.89 1015.63 1015.37 1015.23 1014.65 1014.39 1013.38 1012.95 1013.01 1012.71 1012.84 1013.72 1015.26 1015.23 1015.17 1016.11 1017.06 1017.64 1018.72 1019.27 1019.66 1019.84 1020.01 1020.11 1020.40 1020.53
1017.70 1018.03 1018.22 1018.45 1018.72 1018.91 1019.07 1019.04 1018.98 1019.26 1019.37 1017.99 1015.81 1015.03 1015.27 1015.31 1015.41 1015.48 1015.61 1015.72 1015.39 1014.84 1014.54 1014.35 1013.69 1013.88 1014.12 1013.88 1013.91 1015.73 1016.93 1017.49 1017.09 1017.42 1018.24 1018.71 1019.99 1020.57 1020.79 1020.83 1021.01 1021.11 1021.26 1021.50
1017.58 1017.84 1018.07 1018.26 1018.53 1018.82 1019.14 1019.03 1018.37 1018.85 1019.34 1018.47 1016.57 1015.09 1014.93 1015.06 1015.09 1015.11 1015.23 1015.30 1015.34 1015.52 1015.21 1014.58 1014.08 1014.53 1014.65 1014.83 1015.63 1018.02 1018.48 1018.85 1018.72 1018.87 1019.36 1019.89 1020.75 1021.31 1021.64 1021.68 1022.03 1022.23 1022.29 1022.43
1017.41 1017.69 1017.86 1018.08 1018.41 1018.78 1018.65 1018.30 1017.99 1018.28 1019.07 1018.33 1016.92 1014.67 1014.79 1014.93 1014.83 1014.66 1014.76 1015.14 1014.81 1015.17 1014.65 1014.35 1014.28 1014.90 1015.30 1015.65 1016.77 1018.97 1019.54 1019.46 1019.46 1019.67 1019.73 1020.31 1020.99 1021.59 1022.09 1022.34 1022.68 1022.91 1022.97 1022.93
1017.21 1017.46 1017.58 1017.77 1017.96 1018.57 1018.95 1018.16 1018.19 1018.45 1018.49 1018.11 1017.22 1015.21 1014.51 1014.88 1014.82 1014.61 1014.60 1014.57 1015.12 1014.89 1014.17 1014.16 1014.36 1015.00 1015.97 1017.12 1018.84 1019.58 1019.95 1020.29 1020.32 1020.30 1020.45 1020.68 1021.31 1021.71 1021.91 1022.16 1022.60 1023.09 1023.52 1023.83
1017.07 1017.28 1017.38 1017.66 1017.65 1017.93 1018.09 1018.51 1018.86 1018.73 1018.79 1017.71 1017.03 1015.58 1014.16 1014.88 1014.56 1014.38 1014.47 1014.45 1014.39 1014.09 1013.89 1013.83 1014.50 1015.16 1017.01 1018.59 1019.49 1020.08 1020.39 1020.34 1020.60 1020.62 1020.37 1020.71 1021.10 1021.67 1022.05 1022.47 1023.00 1023.62 1024.26 1024.73
1017.00 1017.40 1017.49 1017.64 1017.57 1017.86 1018.54 1019.36 1019.16 1018.85 1018.38 1017.54 1016.29 1015.03 1014.22 1014.40 1014.56 1014.16 1014.30 1014.16 1013.99 1013.97 1013.82 1014.06 1014.58 1016.75 1018.70 1019.68 1020.46 1020.52 1020.53 1020.51 1020.55 1020.60 1020.91 1021.27 1021.91 1022.60 1023.13 1023.61 1024.05 1024.64 1025.32 1025.93
1017.01 1017.16 1017.10 1017.16 1017.39 1017.88 1018.16 1018.31 1018.22 1017.84 1017.19 1016.17 1015.67 1014.97 1014.39 1014.19 1014.43 1014.51 1014.29 1014.30 1013.81 1013.78 1013.75 1014.14 1014.85 1016.84 1018.79 1019.96 1020.63 1020.97 1021.10 1021.05 1021.20 1021.38 1021.74 1022.08 1022.78 1023.56 1024.23 1024.91 1025.53 1026.18 1026.84 1027.51
1016.46 1016.44 1016.86 1017.50 1017.37 1017.21 1017.18 1016.89 1016.42 1016.08 1014.69 1014.59 1014.71 1014.89 1014.53 1014.78 1014.97 1014.68 1014.79 1014.46 1014.22 1013.74 1014.06 1014.53 1015.32 1017.83 1019.17 1020.26 1021.07 1021.63 1021.95 1022.21 1022.44 1022.70 1023.03 1023.51 1024.02 1024.56 1025.28 1026.13 1027.06 1027.92 1028.57 1028.96
1016.10 1016.01 1016.39 1016.57 1016.54 1015.98 1015.40 1015.15 1014.96 1014.27 1013.92 1014.20 1014.58 1014.98 1014.82 1015.32 1015.23 1014.96 1014.76 1014.66 1013.97 1014.03 1014.32 1014.50 1016.46 1018.40 1019.79 1020.83 1021.77 1022.49 1023.02 1023.39 1023.74 1024.22 1024.70 1025.18 1025.76 1026.48 1027.15 1027.93 1028.65 1029.00 1029.48 1029.68
1015.58 1015.35 1015.61 1015.53 1015.06 1014.45 1013.78 1013.58 1013.63 1013.66 1013.85 1014.09 1014.66 1014.63 1014.47 1014.71 1015.03 1014.97 1014.68 1014.45 1014.28 1014.17 1014.48 1015.27 1017.34 1019.30 1020.76 1021.72 1022.50 1023.23 1024.13 1024.78 1025.22 1025.85 1026.54 1027.11 1027.63 1028.11 1028.67 1029.08 1029.41 1029.66 1030.00 1030.33
1014.90 1014.59 1014.02 1014.15 1013.96 1014.14 1014.29 1014.29 1014.32 1014.33 1014.14 1014.41 1014.62 1014.42 1014.40 1014.54 1014.74 1014.71 1014.63 1014.62 1014.41 1014.55 1015.21 1016.79 1018.59 1020.33 1021.68 1022.76 1023.64 1024.61 1025.46 1026.08 1026.55 1027.09 1027.61 1028.12 1028.49 1028.84 1029.27 1029.59 1029.82 1030.17 1030.38 1030.48
1014.53 1014.22 1014.17 1014.31 1014.33 1014.53 1014.79 1014.74 1014.73 1014.76 1014.46 1014.52 1014.22 1014.47 1014.40 1014.26 1014.28 1014.48 1014.47 1014.71 1014.75 1015.82 1017.15 1018.55 1020.10 1021.52 1022.63 1023.67 1024.69 1025.56 1026.10 1026.51 1027.06 1027.69 1028.12 1028.57 1028.93 1029.07 1029.42 1029.83 1030.04 1030.21 1030.33 1030.45
1014.57 1014.53 1014.77 1014.62 1014.64 1014.43 1014.87 1014.97 1014.95 1014.97 1014.65 1013.97 1013.59 1013.91 1013.85 1014.23 1014.21 1014.44 1014.63 1015.40 1016.55 1017.69 1018.90 1020.05 1021.17 1022.38 1023.51 1024.52 1025.35 1026.05 1026.55 1027.00 1027.49 1027.94 1028.37 1028.77 1029.11 1029.46 1029.45 1029.32 1029.68 1029.86 1029.98 1030.21
Wind_Speed
10 8 6 3 2 3 8 2 1 3 5 3 2 3 6 7 8 12 12 14 16 16 16 14 16 17 8 4 8 16 15 9 11 21 20 21 19 16 16 7 10 6 5 2
10 9 6 4 3 5 4 2 3 2 6 2 2 4 8 4 9 11 11 11 17 17 16 11 11 12 9 13 7 6 9 6 10 9 9 12 19 12 11 3 2 8 4 1
8 10 7 4 2 5 7 1 2 5 3 3 5 6 4 7 9 10 7 14 17 17 14 13 11 13 9 4 15 21 12 11 5 4 13 13 10 11 9 7 5 6 8 11
9 10 7 4 3 7 6 2 1 4 1 5 6 4 5 11 11 9 17 9 10 13 9 16 11 12 12 10 10 7 6 6 9 12 9 13 10 10 9 7 6 5 9 11
12 9 6 5 6 8 5 3 3 4 4 4 2 6 5 9 13 12 13 13 20 19 17 17 15 14 12 5 8 8 8 5 11 13 11 10 9 4 2 4 5 10 9 9
11 8 7 6 9 7 2 1 2 3 7 6 5 3 6 10 9 10 9 15 17 16 8 14 14 13 17 13 11 5 9 4 7 10 8 4 6 4 1 1 9 14 10 17
10 10 9 8 10 9 5 1 1 1 1 4 4 7 8 8 10 9 15 13 10 5 17 18 15 16 17 15 11 10 8 10 6 3 4 4 8 8 8 11 13 14 14 17
9 11 8 9 12 12 4 1 0 1 5 4 3 8 9 9 5 8 8 10 10 12 8 5 7 6 7 6 5 1 7 6 5 2 1 11 10 10 9 10 8 16 17 19
10 10 8 8 11 13 5 1 2 3 4 5 6 9 5 9 9 6 4 13 4 4 3 5 3 4 5 5 6 5 6 6 4 3 3 4 9 15 14 13 5 13 15 17
10 11 9 8 7 10 6 2 2 2 3 3 8 9 7 7 10 8 8 13 7 8 5 4 4 5 5 5 6 3 3 3 4 4 2 8 15 21 21 4 5 10 12 12
12 11 10 8 6 5 9 1 7 3 3 9 7 7 9 9 8 8 13 5 9 7 9 6 5 4 5 1 7 5 7 6 3 2 3 6 22 8 8 7 5 8 10 10
12 11 10 8 7 6 12 3 4 2 2 8 14 15 14 13 13 9 6 3 6 6 6 6 5 4 5 5 3 9 4 7 5 6 5 6 10 11 9 9 8 10 10 9
11 11 10 9 9 9 13 3 5 2 2 7 7 1 5 3 7 8 5 4 6 3 4 4 4 5 6 6 5 1 4 12 4 5 8 8 10 11 11 10 11 11 11 10
11 10 10 9 8 10 14 5 6 3 3 4 2 4 6 1 6 8 9 9 9 6 5 4 4 4 8 5 5 6 4 8 5 6 8 9 12 11 8 10 10 11 12 11
10 10 10 9 9 8 9 5 5 4 4 4 7 9 3 3 5 7 8 7 6 3 4 2 2 0 2 2 0 5 6 5 5 5 4 9 8 9 9 10 11 11 10 10
8 9 8 9 10 8 4 1 7 8 3 4 4 2 4 3 4 5 6 5 4 1 3 3 4 4 4 4 4 4 7 6 5 5 11 12 10 10 11 11 10 10 10 9
9 8 7 8 10 4 4 1 2 11 6 3 4 3 5 3 3 4 4 4 3 3 3 3 3 2 4 3 3 7 6 7 8 6 6 9 10 7 8 9 9 9 9 10
8 7 8 9 10 15 4 2 10 9 3 1 3 4 3 3 2 1 2 1 1 4 3 2 3 2 2 3 6 5 6 8 8 8 9 10 8 6 7 7 8 9 9 10
6 6 5 1 1 2 3 11 7 2 2 2 3 4 2 2 3 2 4 3 4 1 3 1 2 2 4 5 6 6 4 2 6 3 6 7 7 7 7 8 8 9 9 9
5 2 1 3 3 23 14 2 2 2 2 3 4 5 3 4 0 2 2 3 2 2 2 2 3 4 6 6 6 3 4 2 4 5 5 5 7 7 8 8 9 9 9 9
2 3 1 4 16 3 2 4 4 4 4 5 4 7 5 3 2 3 1 2 2 3 3 3 3 4 6 7 6 5 5 5 5 6 6 7 8 8 8 9 10 9 10 9
6 3 4 2 3 3 5 6 4 5 5 6 4 4 4 2 1 2 3 2 2 3 2 3 3 4 10 8 7 6 6 7 8 8 9 10 10 9 10 10 10 9 8 7
3 4 4 4 3 6 6 9 5 4 4 4 4 4 4 3 4 3 2 4 2 2 3 1 4 9 8 8 8 8 7 8 10 11 11 11 12 12 10 10 8 7 7 6
3 4 7 6 5 5 4 5 3 3 3 6 5 4 2 2 4 2 4 1 3 3 3 3 6 10 9 8 8 9 9 9 11 11 11 10 10 9 8 7 6 5 6 5
4 4 5 7 1 2 3 3 3 2 6 7 3 2 3 3 3 3 1 2 3 4 2 3 9 11 10 9 9 10 9 9 9 9 9 9 8 7 7 5 5 5 4 4
3 2 2 2 3 3 3 4 3 2 5 5 2 3 3 4 2 3 4 3 3 4 4 7 10 11 10 10 10 10 10 10 9 8 8 7 6 5 6 5 4 3 3 2
5 2 1 2 1 2 3 1 4 3 6 3 3 4 2 1 3 3 2 2 4 5 7 7 10 11 11 11 11 10 10 10 9 8 7 7 6 5 5 5 5 5 4 2
Wind_Direction
165 167 188 206 234 265 265 236 230 69 286 213 197 353 5 324 296 302 289 265 280 289 305 303 299 291 290 112 340 308 294 304 213 190 194 214 200 205 201 225 198 229 306 82
172 171 183 201 249 280 289 263 119 151 262 295 348 59 302 258 285 313 301 290 297 300 301 297 295 300 307 315 350 304 2 247 186 170 207 197 204 211 196 174 281 213 218 162
172 169 178 190 255 279 281 213 209 150 172 100 347 357 319 322 330 307 301 296 285 285 290 276 269 280 313 313 278 270 242 249 313 342 151 156 163 186 179 188 219 248 249 283
184 174 183 201 236 254 275 236 274 7 148 111 10 329 275 316 328 332 305 296 311 307 305 312 310 331 305 257 266 289 189 261 105 100 128 138 153 167 166 207 249 289 308 332
166 178 178 183 205 239 272 163 234 175 114 173 249 220 316 314 324 314 299 305 317 305 289 280 297 293 298 299 310 322 267 190 116 97 85 85 109 116 278 236 288 290 286 279
174 172 171 191 198 227 60 314 119 306 134 175 224 73 293 324 328 298 324 312 303 294 315 326 295 300 289 280 302 315 310 90 114 72 56 78 128 70 83 137 29 359 349 340
176 185 187 186 210 229 285 60 70 297 162 238 359 332 312 338 320 289 305 324 312 347 333 302 277 256 263 270 274 273 321 54 49 76 278 165 96 48 57 65 35 15 349 341
200 203 185 187 208 237 292 134 198 358 278 309 265 350 337 308 348 328 298 310 281 298 295 289 266 235 228 116 68 232 336 353 91 194 37 114 103 50 3 338 53 12 343 344
187 188 190 202 206 217 263 151 348 291 289 72 350 315 315 342 348 305 220 332 247 216 250 251 289 27 348 53 110 60 55 5 313 203 173 162 38 355 327 334 108 9 1 1
186 189 190 190 192 202 213 111 36 333 283 304 343 334 336 328 334 322 24 347 336 320 302 291 358 63 338 22 50 51 116 79 337 117 269 95 352 329 306 280 21 9 26 26
184 182 187 191 189 194 202 150 175 264 291 296 310 306 297 316 319 329 344 308 16 346 355 352 354 13 26 341 51 3 21 322 46 320 256 102 357 22 40 334 39 35 46 41
185 184 192 195 205 209 198 170 174 166 250 303 321 286 282 283 289 298 315 346 358 7 335 12 311 327 357 341 103 33 64 19 350 16 55 58 38 55 38 27 45 38 53 52
184 194 198 206 220 215 205 159 122 114 277 279 228 262 85 260 241 242 280 80 6 357 8 309 295 303 345 359 53 7 40 12 31 186 64 60 48 57 50 48 48 44 51 55
193 199 206 222 217 212 205 196 169 241 285 279 104 141 281 348 231 220 233 292 308 292 290 306 295 333 16 6 337 59 0 310 15 98 129 109 57 41 40 53 59 58 52 54
194 219 209 203 215 211 204 242 189 235 304 329 317 310 115 283 228 233 223 242 275 324 312 271 309 293 291 291 335 59 1 5 342 43 7 77 61 46 52 57 50 48 61 63
213 200 208 216 216 210 184 319 206 194 225 276 294 60 200 226 256 231 206 217 237 235 276 264 284 55 335 271 72 71 41 7 340 90 81 92 95 71 60 66 61 58 61 60
209 210 218 220 169 173 205 303 346 153 171 249 280 254 149 232 232 191 203 185 251 296 258 245 285 84 338 312 78 115 88 38 89 86 117 92 50 74 77 83 84 79 72 64
200 220 229 232 233 185 239 356 140 155 209 246 269 276 190 185 240 179 318 205 255 217 286 261 288 159 74 77 93 80 88 83 63 66 82 95 117 118 97 91 90 78 71 68
203 225 261 75 133 136 120 105 111 258 309 263 227 266 84 170 258 128 192 203 226 185 261 273 273 141 56 90 117 88 55 54 119 143 92 98 89 85 86 90 86 86 82 78
181 137 171 164 188 113 106 138 168 180 261 246 246 255 271 187 277 245 189 199 201 269 201 170 236 79 112 108 93 102 93 131 154 131 119 113 96 84 78 76 76 80 80 74
161 174 155 87 123 109 169 149 205 172 230 211 235 244 234 190 217 231 258 321 185 251 118 255 155 127 146 141 128 111 87 79 85 76 83 88 114 118 110 95 85 80 77 70
174 126 98 108 202 166 185 180 178 218 249 149 183 215 231 115 26 272 208 259 254 268 144 252 178 109 138 143 128 108 95 92 90 91 96 99 101 104 103 95 88 78 74 70
171 184 141 202 157 198 207 176 199 210 175 184 152 155 174 163 220 247 203 232 239 190 220 231 54 134 143 137 127 115 110 109 106 103 101 97 88 81 94 97 93 96 82 71
195 176 157 220 173 228 189 207 174 84 131 155 169 166 180 142 187 240 240 178 249 249 254 123 133 148 141 132 129 127 112 110 108 102 99 100 100 94 87 89 100 101 86 70
199 226 190 195 111 62 42 62 104 110 156 137 179 158 197 152 215 217 251 218 237 238 11 91 124 140 137 138 130 129 127 126 124 124 119 117 117 113 105 94 99 107 108 92
198 256 162 61 167 158 157 167 127 182 171 180 186 152 214 197 242 185 218 251 247 92 83 109 126 137 142 137 135 137 139 135 125 122 123 118 116 115 107 113 113 111 113 119
166 183 306 335 347 146 97 102 147 166 182 227 188 186 221 121 198 224 243 318 56 114 116 133 136 143 139 133 133 134 134 131 129 123 120 119 114 126 161 169 160 210 156 240